| time (UTC) | temp C | wind direction | speed KPH | gust KPH | rain 1hr cm | rain 24hr cm | rain mn cm | humidity % | barometer mb |
| 20260831161823 | 19 | 207 | 3.2 | 8.0 | 0.10 | 0.94 | 0.94 | 79 | 1023.9 |
| 20260831160312 | 19 | 242 | 1.6 | 6.4 | 0.10 | 0.91 | 0.91 | 79 | 1024.0 |
| 20260831154854 | 19 | 210 | 1.6 | 8.0 | 0.20 | 0.91 | 0.91 | 79 | 1023.9 |
| 20260831153324 | 19 | 269 | 0.0 | 6.4 | 0.33 | 0.86 | 0.86 | 79 | 1023.9 |
| 20260831151813 | 20 | 284 | 3.2 | 4.8 | 0.36 | 0.84 | 0.84 | 77 | 1024.1 |
| 20260831144811 | 19 | 221 | 1.6 | 6.4 | 0.25 | 0.69 | 0.69 | 78 | 1024.1 |
| 20260831143326 | 19 | 230 | 0.0 | 4.8 | 0.23 | 0.53 | 0.53 | 75 | 1023.9 |
| 20260831141815 | 19 | 207 | 1.6 | 3.2 | 0.23 | 0.48 | 0.48 | 73 | 1023.8 |
| 20260831140329 | 19 | 239 | 0.0 | 3.2 | 0.23 | 0.48 | 0.48 | 72 | 1023.7 |
| 20260831134817 | 18 | 113 | 0.0 | 4.8 | 0.18 | 0.43 | 0.43 | 72 | 1023.7 |
| 20260831133312 | 18 | 99 | 0.0 | 0.0 | 0.05 | 0.30 | 0.30 | 72 | 1024.1 |
| 20260831131819 | 19 | 98 | 0.0 | 0.0 | 0.00 | 0.25 | 0.25 | 70 | 1024.0 |
| 20260831130320 | 18 | 99 | 0.0 | 0.0 | 0.03 | 0.25 | 0.25 | 68 | 1023.7 |
| 20260831124828 | 18 | 99 | 0.0 | 0.0 | 0.03 | 0.25 | 0.25 | 69 | 1023.7 |
| 20260831123324 | 18 | 103 | 0.0 | 1.6 | 0.03 | 0.25 | 0.25 | 68 | 1023.7 |
| 20260831121812 | 18 | 103 | 0.0 | 0.0 | 0.03 | 0.25 | 0.25 | 68 | 1023.8 |
| 20260831114856 | 18 | 103 | 0.0 | 1.6 | 0.00 | 0.23 | 0.23 | 70 | 1024.0 |
| 20260831113326 | 18 | 127 | 1.6 | 4.8 | 0.00 | 0.23 | 0.23 | 70 | 1024.0 |
| 20260831111814 | 18 | 163 | 0.0 | 0.0 | 0.00 | 0.23 | 0.23 | 71 | 1024.3 |
| 20260831110311 | 18 | 169 | 0.0 | 0.0 | 0.00 | 0.23 | 0.23 | 72 | 1024.2 |
| 20260831104819 | 18 | 217 | 0.0 | 1.6 | 0.03 | 0.23 | 0.23 | 72 | 1024.0 |
| 20260831103318 | 18 | 103 | 1.6 | 3.2 | 0.03 | 0.23 | 0.23 | 73 | 1023.8 |
| 20260831101831 | 18 | 191 | 0.0 | 0.0 | 0.05 | 0.23 | 0.23 | 73 | 1023.9 |
| 20260831100320 | 18 | 189 | 0.0 | 0.0 | 0.08 | 0.23 | 0.23 | 74 | 1024.0 |
| 20260831094835 | 18 | 232 | 0.0 | 1.6 | 0.10 | 0.20 | 0.20 | 74 | 1024.1 |
| 20260831093324 | 18 | 226 | 0.0 | 1.6 | 0.15 | 0.20 | 0.20 | 76 | 1024.2 |
| 20260831091812 | 18 | 266 | 0.0 | 1.6 | 0.18 | 0.18 | 0.18 | 77 | 1024.3 |
| 20260831090355 | 18 | 218 | 0.0 | 3.2 | 0.15 | 0.15 | 0.15 | 78 | 1024.2 |
| 20260831084816 | 18 | 188 | 0.0 | 0.0 | 0.10 | 0.10 | 0.10 | 80 | 1024.3 |
| 20260831083333 | 18 | 162 | 0.0 | 3.2 | 0.05 | 0.05 | 0.05 | 81 | 1024.3 |
| 20260831081825 | 18 | 136 | 0.0 | 1.6 | 0.00 | 0.00 | 0.00 | 82 | 1024.5 |
| 20260831080315 | 18 | 193 | 0.0 | 1.6 | 0.00 | 0.00 | 0.00 | 83 | 1024.4 |
| 20260831074830 | 18 | 238 | 0.0 | 0.0 | 0.00 | 0.00 | 0.00 | 83 | 1024.2 |
| 20260831073347 | 18 | 163 | 0.0 | 3.2 | 0.00 | 0.00 | 0.00 | 83 | 1024.3 |
| 20260831071814 | 18 | 238 | 1.6 | 4.8 | 0.00 | 0.00 | 0.00 | 81 | 1024.4 |
| 20260831070326 | 18 | 201 | 1.6 | 4.8 | 0.00 | 0.00 | 0.00 | 79 | 1024.5 |
| 20260831064839 | 18 | 188 | 0.0 | 0.0 | 0.00 | 0.00 | 0.00 | 79 | 1024.5 |
| 20260831063327 | 18 | 221 | 0.0 | 0.0 | 0.00 | 0.00 | 0.00 | 79 | 1024.6 |
| 20260831061841 | 18 | 219 | 0.0 | 3.2 | 0.00 | 0.00 | 0.00 | 79 | 1024.6 |
| 20260831060312 | 17 | 129 | 0.0 | 0.0 | 0.00 | 0.00 | 0.00 | 80 | 1024.6 |
| 20260831054852 | 17 | 129 | 0.0 | 0.0 | 0.00 | 0.00 | 0.00 | 79 | 1024.6 |
| 20260831053320 | 17 | 113 | 0.0 | 0.0 | 0.00 | 0.00 | 0.00 | 81 | 1024.7 |
| 20260831051832 | 17 | 113 | 0.0 | 0.0 | 0.00 | 0.00 | 0.00 | 79 | 1024.7 |
| 20260831050322 | 17 | 113 | 0.0 | 1.6 | 0.00 | 0.00 | 0.00 | 80 | 1024.8 |
| 20260831044810 | 17 | 243 | 0.0 | 0.0 | 0.00 | 0.00 | 0.00 | 81 | 1025.1 |
| 20260831043325 | 17 | 242 | 0.0 | 0.0 | 0.00 | 0.00 | 0.00 | 78 | 1025.3 |
| 20260831041811 | 17 | 241 | 0.0 | 0.0 | 0.00 | 0.00 | 0.00 | 79 | 1025.0 |
| 20260831040329 | 17 | 242 | 0.0 | 0.0 | 0.00 | 0.00 | 0.00 | 79 | 1024.9 |
| 20260831034831 | 17 | 242 | 0.0 | 0.0 | 0.00 | 0.00 | 0.00 | 78 | 1024.9 |
| 20260831033323 | 16 | 219 | 0.0 | 1.6 | 0.00 | 0.00 | 0.00 | 80 | 1025.0 |
| 20260831031812 | 16 | 226 | 0.0 | 0.0 | 0.00 | 0.00 | 0.00 | 82 | 1025.0 |
| 20260831030330 | 16 | 163 | 0.0 | 0.0 | 0.00 | 0.00 | 0.00 | 84 | 1025.0 |
| 20260831024819 | 16 | 163 | 0.0 | 0.0 | 0.00 | 0.00 | 0.00 | 85 | 1024.9 |
| 20260831023314 | 16 | 163 | 0.0 | 1.6 | 0.00 | 0.00 | 0.00 | 86 | 1024.9 |
| 20260831021848 | 16 | 163 | 0.0 | 0.0 | 0.00 | 0.00 | 0.00 | 87 | 1025.1 |
| 20260831020317 | 17 | 209 | 0.0 | 0.0 | 0.00 | 0.00 | 0.00 | 88 | 1025.0 |
| 20260831014851 | 17 | 208 | 0.0 | 0.0 | 0.00 | 0.00 | 0.00 | 88 | 1025.2 |
| 20260831013328 | 17 | 174 | 0.0 | 1.6 | 0.00 | 0.00 | 0.00 | 88 | 1025.1 |
| 20260831011837 | 17 | 223 | 0.0 | 1.6 | 0.00 | 0.00 | 0.00 | 89 | 1025.0 |
| 20260831010311 | 17 | 184 | 0.0 | 3.2 | 0.00 | 0.00 | 0.00 | 89 | 1024.8 |
| 20260831004827 | 17 | 259 | 1.6 | 4.8 | 0.00 | 0.00 | 0.00 | 89 | 1024.7 |
| 20260831003337 | 17 | 195 | 1.6 | 8.0 | 0.00 | 0.00 | 0.00 | 90 | 1024.4 |
| 20260831001830 | 18 | 225 | 1.6 | 9.7 | 0.00 | 0.00 | 0.00 | 90 | 1024.3 |
| 20260831000343 | 18 | 225 | 3.2 | 6.4 | 0.00 | 0.00 | 0.00 | 89 | 1024.3 |
| 20260830234828 | 18 | 200 | 4.8 | 11.3 | 0.00 | 0.00 | 0.00 | 89 | 1024.2 |
| 20260830233323 | 18 | 167 | 0.0 | 0.0 | 0.00 | 0.00 | 0.00 | 89 | 1024.1 |
| 20260830231812 | 18 | 218 | 0.0 | 0.0 | 0.00 | 0.00 | 0.00 | 88 | 1024.1 |
| 20260830230330 | 19 | 193 | 0.0 | 0.0 | 0.00 | 0.00 | 0.00 | 88 | 1024.1 |
| 20260830224819 | 19 | 227 | 0.0 | 1.6 | 0.00 | 0.00 | 0.00 | 88 | 1024.2 |
| 20260830223314 | 19 | 249 | 0.0 | 1.6 | 0.00 | 0.00 | 0.00 | 87 | 1024.3 |
| 20260830221821 | 19 | 298 | 0.0 | 1.6 | 0.00 | 0.00 | 0.00 | 87 | 1024.2 |
| 20260830220316 | 19 | 231 | 0.0 | 3.2 | 0.00 | 0.00 | 0.00 | 88 | 1024.3 |
| 20260830214852 | 19 | 257 | 1.6 | 8.0 | 0.00 | 0.00 | 0.00 | 88 | 1024.3 |
| 20260830213320 | 19 | 295 | 1.6 | 6.4 | 0.00 | 0.00 | 0.00 | 88 | 1024.1 |
| 20260830211814 | 19 | 257 | 0.0 | 8.0 | 0.00 | 0.00 | 0.00 | 88 | 1024.3 |
| 20260830210350 | 19 | 259 | 1.6 | 4.8 | 0.00 | 0.00 | 0.00 | 89 | 1024.3 |
| 20260830204820 | 20 | 245 | 0.0 | 4.8 | 0.00 | 0.00 | 0.00 | 88 | 1024.4 |
| 20260830203337 | 20 | 288 | 3.2 | 6.4 | 0.00 | 0.00 | 0.00 | 86 | 1024.4 |
| 20260830201824 | 20 | 274 | 1.6 | 12.9 | 0.00 | 0.00 | 0.00 | 86 | 1024.3 |
| 20260830200322 | 20 | 276 | 1.6 | 9.7 | 0.00 | 0.00 | 0.00 | 85 | 1024.2 |
| 20260830194829 | 20 | 265 | 3.2 | 6.4 | 0.00 | 0.00 | 0.00 | 84 | 1024.3 |
| 20260830193346 | 20 | 295 | 9.7 | 16.1 | 0.00 | 0.00 | 0.00 | 83 | 1024.4 |
| 20260830191812 | 20 | 290 | 3.2 | 6.4 | 0.00 | 0.00 | 0.00 | 84 | 1024.6 |
| 20260830190326 | 20 | 263 | 3.2 | 6.4 | 0.00 | 0.00 | 0.00 | 86 | 1024.6 |
| 20260830184815 | 20 | 245 | 3.2 | 6.4 | 0.00 | 0.00 | 0.00 | 87 | 1024.7 |
| 20260830183316 | 20 | 232 | 1.6 | 4.8 | 0.00 | 0.00 | 0.00 | 86 | 1024.7 |
| 20260830181828 | 20 | 232 | 1.6 | 1.6 | 0.00 | 0.00 | 0.00 | 85 | 1024.7 |
| 20260830180315 | 20 | 158 | 0.0 | 0.0 | 0.00 | 0.00 | 0.00 | 85 | 1024.6 |
| 20260830174828 | 20 | 314 | 3.2 | 8.0 | 0.00 | 0.00 | 0.00 | 84 | 1024.7 |
| 20260830173318 | 20 | 309 | 4.8 | 16.1 | 0.00 | 0.00 | 0.00 | 84 | 1025.0 |
| 20260830171829 | 20 | 330 | 6.4 | 11.3 | 0.00 | 0.00 | 0.00 | 84 | 1024.9 |
| 20260830170319 | 20 | 39 | 0.0 | 1.6 | 0.00 | 0.00 | 0.00 | 86 | 1024.8 |
| 20260830164833 | 20 | 354 | 1.6 | 4.8 | 0.00 | 0.00 | 0.00 | 86 | 1024.9 |
| 20260830163329 | 20 | 52 | 0.0 | 0.0 | 0.00 | 0.00 | 0.00 | 86 | 1024.9 |